Location: Agendoh
(31.0664°N, 8.9343°W)
Time: 09:03:47
(UTC+00:00)

BREEZE-M DEB (TANK) - Pass Details

Date: 06 December 2021
Orbit: 315 x 12018 km, 49.7° (Epoch: 24 January)

Event Time Altitude Azimuth Distance (km) Brightness Sun altitude
Exits shadow 06:26:50 - 311° (NW) 6,895 7.1 -11.4°
Reaches altitude 10° 06:28:35 10° 310° (NW) 6,260 6.9 -11.0°
Maximum altitude 06:42:10 63° 234° (SW) 1,192 3.6 -8.3°
Drops below altitude 10° 06:46:13 10° 152° (SSE) 1,982 5.8 -7.5°
Sets 06:47:38 0° 148° (SSE) 2,592 6.6 -7.2°
